Theta_e
315 315 315 315 315 314 314 314 314 315 315 315 316 315 315 315 314 304 297 307 312 318 316 301 297 296 295 293 293 293 286 283 285 286 288 291 290 293 296 297 300 301 302 306 311
313 313 313 314 314 314 314 314 314 314 314 315 315 315 315 315 304 300 309 316 315 316 301 298 294 295 289 290 290 290 285 286 289 289 288 289 290 291 292 292 295 301 306 309 312
311 312 312 313 313 312 312 312 313 313 313 313 314 314 315 311 295 296 313 313 314 312 302 300 297 292 286 287 288 288 285 288 290 291 290 290 289 292 290 290 294 298 303 307 307
310 310 310 310 311 311 312 312 312 312 313 313 313 313 313 303 281 302 312 313 314 308 301 296 294 288 284 283 286 284 289 290 292 292 292 290 290 289 291 293 295 297 305 308 306
308 308 308 308 309 309 310 310 311 311 311 312 312 312 305 293 293 304 311 308 304 303 298 295 291 289 285 284 286 283 285 288 291 290 288 290 289 289 288 294 294 296 303 308 308
307 307 307 307 307 308 308 308 309 309 310 310 311 310 299 288 302 305 304 303 301 300 298 296 293 293 288 287 284 285 287 287 288 288 287 287 287 288 288 292 292 296 298 304 308
306 306 306 305 306 306 306 307 307 307 308 309 309 305 296 292 302 304 303 300 300 299 297 299 298 294 291 287 290 288 284 285 285 286 287 287 285 284 290 291 291 292 294 301 306
306 306 306 305 305 305 306 306 306 306 306 307 308 300 290 301 301 301 301 300 302 301 300 300 299 295 291 291 287 282 280 277 283 286 287 287 282 287 289 289 289 289 289 292 301
306 306 305 306 305 305 306 306 306 306 306 305 298 296 287 302 297 301 301 297 299 299 299 302 297 291 289 283 279 278 274 275 279 286 285 284 283 286 287 285 286 286 287 289 292
306 306 306 306 306 306 306 306 305 302 300 302 301 289 292 290 297 300 300 300 296 295 294 293 292 284 282 279 273 275 275 276 275 280 283 282 282 284 286 285 285 285 286 287 289
305 305 306 306 306 306 301 293 288 286 290 285 288 289 291 297 301 297 301 297 296 291 284 291 284 280 282 283 282 277 277 275 277 282 281 279 280 282 284 284 283 285 286 287 286
304 305 305 305 306 305 295 289 291 291 284 290 290 290 292 294 288 291 297 290 289 284 287 286 281 284 286 285 283 281 278 277 280 282 281 281 281 285 284 285 286 286 285 285 287
305 305 305 305 305 296 291 291 297 294 282 283 288 288 289 290 285 286 291 290 286 284 284 281 281 286 285 282 281 280 279 279 278 281 283 280 280 283 284 284 286 288 288 289 288
304 304 304 304 293 292 288 296 296 291 265 276 283 288 291 289 285 293 293 288 285 281 284 282 286 284 283 281 282 278 283 283 281 278 273 280 272 277 278 281 282 285 286 286 287
305 304 304 303 292 289 292 295 293 286 258 278 285 295 292 285 286 288 293 288 282 281 280 279 280 281 281 282 284 280 283 281 279 278 275 275 272 274 278 278 280 283 284 286 285
304 304 303 296 292 293 296 293 287 267 257 274 284 284 284 285 285 287 286 289 288 282 283 281 285 284 283 285 285 286 282 280 278 275 271 275 273 275 277 280 282 285 284 285 286
303 303 300 297 288 295 293 286 267 261 274 274 277 282 279 278 280 281 279 276 272 267 274 278 279 281 282 279 283 283 279 272 268 268 269 275 273 276 278 280 281 282 284 284 283
302 301 297 296 295 294 289 273 262 266 272 279 278 278 274 277 277 278 275 271 277 274 269 269 269 278 281 278 276 276 278 272 265 266 268 274 271 276 280 282 283 284 283 284 285
300 290 289 292 295 292 279 263 264 270 277 277 277 274 273 277 275 274 268 269 273 274 267 266 270 278 279 280 280 276 273 279 275 274 270 272 275 280 283 283 282 283 283 284 285
290 287 286 292 293 289 278 269 267 279 280 278 272 274 267 271 272 269 269 273 275 275 269 269 267 275 276 279 279 277 280 272 276 267 266 270 272 273 278 278 280 281 282 284 286
286 277 286 293 290 283 272 264 274 280 281 277 274 274 275 273 273 271 273 276 278 276 273 271 270 271 275 273 274 274 273 274 273 272 268 267 270 277 276 277 278 280 283 284 285
286 272 285 289 275 278 268 267 281 279 281 280 279 278 276 276 273 272 272 275 280 278 273 276 272 265 269 274 275 274 272 272 268 267 270 270 269 278 277 278 279 280 282 283 285
280 278 285 288 274 264 270 274 279 278 278 279 277 279 279 277 273 276 276 281 281 279 275 275 268 259 265 269 271 271 274 275 274 273 268 266 267 279 279 277 278 278 281 283 284
280 274 273 284 282 276 273 273 268 280 279 280 280 280 277 276 279 274 275 279 281 281 285 282 274 268 264 267 269 267 272 275 272 266 268 269 270 274 276 275 277 278 281 282 283
281 276 271 265 268 271 269 273 272 271 279 281 279 278 277 273 275 274 277 278 280 282 281 279 272 273 273 273 272 272 272 272 270 271 267 270 270 274 276 277 278 279 281 281 282
273 279 275 271 271 270 271 266 273 275 274 273 274 277 278 275 276 273 277 277 276 278 277 278 270 273 271 274 273 271 273 273 273 273 272 272 272 278 279 280 277 277 278 279 282
283 283 281 274 263 266 268 271 273 277 278 279 279 278 277 278 281 282 282 282 280 276 275 273 271 269 267 271 272 268 270 273 273 274 273 269 274 278 276 276 277 278 281 282 283
Wind_Speed
14 14 14 12 12 12 12 13 14 14 14 16 16 16 18 21 23 5 3 2 4 10 8 6 4 5 2 2 0 3 4 4 5 7 6 3 1 2 1 1 2 1 2 5 10
15 15 14 14 13 14 14 15 15 15 15 15 16 17 18 22 6 4 6 6 6 8 5 7 5 7 2 2 1 4 5 10 7 6 4 3 0 1 2 3 2 3 3 4 10
14 15 15 14 14 14 15 15 15 15 14 14 15 16 19 13 5 2 2 5 8 5 1 1 3 1 1 0 4 5 7 6 6 7 2 2 3 3 3 4 7 7 4 6 6
13 14 15 15 14 15 16 16 16 15 14 14 15 16 15 3 4 3 5 8 10 5 4 3 1 0 2 4 3 3 7 5 5 3 4 4 3 3 7 10 2 7 5 7 8
13 14 14 14 15 15 15 17 16 16 15 14 14 15 5 3 9 3 9 7 7 4 2 2 2 3 5 3 3 4 4 4 7 9 5 3 8 9 6 11 6 6 5 11 11
13 13 13 14 15 17 17 17 17 17 16 14 14 13 3 11 5 6 5 6 5 5 4 4 2 2 4 3 4 2 4 7 5 6 4 4 6 5 6 10 12 8 10 11 14
12 13 13 14 15 17 18 19 19 19 18 16 14 5 7 18 6 9 9 4 2 3 4 1 3 5 4 3 4 3 6 5 5 4 7 3 11 10 11 8 10 10 10 9 11
12 13 14 15 17 18 20 22 23 22 21 18 15 3 11 5 5 7 4 6 5 7 5 4 2 1 3 4 7 3 2 2 3 9 8 8 24 10 12 12 15 12 9 9 12
12 12 13 14 16 18 21 24 28 23 16 13 5 4 9 6 3 8 7 6 1 4 4 4 5 5 2 3 4 3 6 5 6 10 4 11 29 11 6 6 10 10 9 10 11
13 14 14 15 17 19 22 25 18 6 5 0 1 4 5 5 3 4 2 4 2 3 2 3 3 3 1 5 12 9 7 5 7 5 8 13 21 7 9 7 10 10 10 9 9
14 15 16 16 17 18 13 6 8 6 9 5 12 9 11 5 5 4 5 4 1 3 5 4 8 13 12 11 15 2 5 7 3 4 4 7 16 10 10 9 10 11 12 13 10
14 15 15 16 17 16 4 4 5 6 11 12 14 14 13 5 6 15 2 3 3 6 5 4 13 8 6 7 10 7 10 17 7 8 4 15 24 18 10 12 12 13 12 11 9
14 14 15 16 16 5 3 3 5 1 5 9 4 4 5 5 5 11 3 2 7 8 9 12 4 4 5 7 8 9 14 13 12 2 7 6 20 18 9 9 12 15 15 14 14
13 12 14 14 4 4 5 7 5 2 6 7 2 4 1 2 1 4 2 7 6 7 4 9 8 13 15 11 9 13 9 15 16 6 5 6 11 6 2 9 9 14 12 13 13
13 13 13 8 3 3 3 6 5 5 6 6 3 2 2 1 1 4 2 1 6 5 1 4 3 7 4 7 10 7 7 6 7 8 6 8 5 5 2 6 9 9 11 13 8
12 12 10 3 2 4 5 5 5 8 8 7 3 2 1 2 3 1 2 6 1 2 5 12 6 6 3 10 10 6 3 8 4 3 8 14 7 19 10 10 8 14 10 9 9
12 12 8 3 3 0 3 4 6 5 6 6 4 1 1 3 3 1 1 1 2 5 1 3 3 1 1 5 10 12 5 4 2 4 11 9 8 21 4 5 6 12 13 12 5
12 11 4 4 5 3 3 7 3 8 8 5 4 7 4 3 5 3 2 1 3 3 2 1 2 6 3 5 2 1 5 5 5 5 4 2 9 13 4 6 7 9 9 6 8
5 2 3 4 5 4 5 4 9 6 4 4 6 6 7 4 5 1 2 5 6 7 7 4 4 3 5 4 5 3 5 3 7 12 7 4 9 11 13 14 8 9 8 10 10
2 4 3 2 6 4 2 8 7 4 3 3 12 6 6 4 1 2 4 4 4 6 3 5 2 5 3 1 7 6 2 2 5 8 15 7 12 13 8 10 12 9 12 14 14
4 4 4 4 3 2 4 9 6 7 6 6 13 18 16 6 7 5 5 4 5 4 3 5 4 4 1 5 4 2 2 3 1 3 5 6 8 4 9 6 9 10 9 11 13
2 2 3 2 3 1 2 7 4 13 10 14 13 18 16 8 5 5 6 6 6 7 8 7 4 4 9 8 3 3 5 4 3 2 2 3 8 5 5 11 9 15 11 12 12
1 3 3 1 3 3 6 9 9 16 14 8 8 11 10 10 8 8 7 10 10 9 8 7 3 1 8 6 3 4 4 5 3 1 6 5 8 3 18 12 10 11 22 13 16
2 4 5 2 1 5 9 12 5 5 16 9 10 11 10 14 15 5 9 4 8 10 17 8 7 8 10 9 3 2 4 7 6 3 11 10 21 22 11 9 10 12 16 21 14
2 5 5 4 5 5 3 7 15 13 8 4 5 15 13 10 9 16 13 10 6 10 12 7 6 8 17 17 6 10 12 10 12 16 9 19 16 23 19 17 12 10 12 19 18
5 3 2 4 3 3 5 6 10 18 6 6 9 17 14 21 15 14 12 12 12 2 9 4 9 6 13 17 14 15 15 19 18 18 13 20 21 24 24 19 11 8 8 11 23
2 3 2 4 2 3 7 7 10 4 12 14 10 13 15 15 16 18 15 14 11 7 8 6 4 5 16 9 8 12 21 22 15 14 10 14 22 22 17 11 8 8 8 10 15
Wind_Direction
9 9 4 4 2 355 348 347 342 339 338 337 337 338 337 332 326 343 317 307 314 324 330 304 11 351 46 315 358 132 81 209 236 164 234 259 78 345 199 242 357 332 146 312 120
6 358 351 351 351 347 343 340 337 336 336 337 336 335 337 333 316 292 248 310 327 342 25 22 357 351 360 265 287 133 158 216 205 197 217 201 103 312 14 18 260 308 62 82 134
11 5 358 355 351 345 343 335 330 329 329 334 338 341 340 335 322 315 330 327 334 355 325 298 301 338 263 238 215 185 195 226 255 222 300 261 255 215 203 266 220 206 178 152 154
9 6 0 354 351 344 338 335 336 338 334 333 333 335 337 339 286 345 337 333 338 321 338 349 59 41 247 216 238 216 241 218 269 209 169 211 264 227 196 236 217 206 164 166 182
6 1 354 349 344 339 336 334 334 329 332 329 329 333 358 10 260 313 353 340 334 349 15 309 209 188 208 232 320 214 248 249 252 295 251 273 228 241 230 246 264 224 167 193 198
0 357 351 348 344 338 334 330 324 321 318 316 317 327 299 271 264 279 329 352 9 2 359 30 68 337 275 250 201 308 290 283 292 281 290 262 258 162 254 239 263 188 213 212 206
350 349 343 343 343 339 333 327 320 309 301 300 303 308 248 258 281 297 306 282 273 303 298 121 85 40 357 292 331 285 301 284 223 227 248 303 265 224 226 233 241 230 223 220 215
345 342 334 337 339 338 332 325 314 305 301 297 294 284 266 272 277 287 268 277 234 243 197 249 171 202 198 303 350 328 310 259 263 188 224 158 255 244 216 228 243 245 238 228 227
343 342 335 333 330 329 327 323 311 310 296 284 291 199 272 305 274 269 199 238 172 218 207 216 131 189 211 118 356 329 261 236 277 209 212 193 258 241 250 196 256 269 247 233 244
347 343 333 330 330 331 331 323 317 12 11 135 153 337 283 309 355 319 160 183 179 164 179 145 186 177 117 139 228 203 224 257 246 240 226 238 257 274 285 278 255 263 275 263 228
347 341 338 336 331 333 343 350 8 339 16 258 279 255 291 284 319 342 15 350 105 98 181 203 217 224 219 227 244 281 243 249 285 255 257 246 266 257 253 265 268 264 264 265 246
338 337 338 339 333 336 30 40 4 265 307 274 255 268 269 305 296 291 334 338 299 248 216 225 242 228 214 227 256 262 271 269 283 252 252 274 278 278 232 243 241 244 249 250 258
336 337 336 336 332 28 334 305 322 8 294 299 250 245 253 166 243 275 206 247 272 279 233 232 236 79 190 235 238 235 241 260 254 297 249 288 278 272 250 232 249 253 246 253 241
332 333 337 342 35 321 333 325 330 104 46 284 292 280 183 179 225 232 270 169 197 242 240 258 235 242 257 243 190 258 219 246 259 261 243 167 280 235 251 251 229 249 250 248 240
329 331 339 356 273 340 309 332 343 56 7 279 294 241 103 189 317 236 317 79 200 221 326 227 11 43 283 247 201 247 348 278 260 238 238 249 252 287 89 271 276 253 252 263 249
329 322 328 23 13 258 311 335 36 46 267 314 303 298 329 1 269 315 335 61 135 142 258 253 322 301 229 293 296 350 314 316 256 190 240 239 187 278 236 240 262 286 263 248 272
326 318 324 156 233 84 54 36 34 129 306 291 305 187 263 260 279 227 234 356 186 46 140 209 198 351 286 275 247 249 266 268 260 212 241 167 194 245 307 269 247 265 272 300 309
327 328 291 212 177 100 55 49 100 225 228 295 320 307 266 291 258 210 77 280 305 109 85 159 283 188 209 147 236 317 227 226 233 219 275 182 220 236 198 252 274 283 300 294 299
350 333 320 283 136 101 78 78 211 215 235 263 328 284 287 263 222 81 208 217 223 171 165 129 272 268 230 198 168 129 268 356 265 258 273 223 282 288 284 281 324 324 328 328 347
357 354 289 334 125 93 169 240 226 233 255 252 265 234 232 266 303 137 190 214 236 186 144 217 297 244 294 327 251 213 96 293 228 248 243 209 233 247 285 14 10 359 336 333 335
60 22 267 153 73 129 216 227 266 257 255 253 265 265 263 231 219 232 215 229 199 155 115 139 137 280 19 210 204 159 210 200 258 273 311 250 245 342 79 21 318 313 319 321 320
103 4 308 41 72 270 236 202 239 284 279 268 258 260 254 233 242 238 225 227 171 160 172 208 161 219 224 248 249 257 237 194 192 225 250 265 266 149 52 359 338 317 319 310 306
211 249 327 66 242 263 289 273 273 283 276 280 254 221 227 243 234 220 211 238 197 168 186 187 214 2 328 327 127 196 203 157 114 142 240 262 264 281 337 334 322 325 315 319 320
135 295 316 266 163 226 287 281 266 249 282 283 264 245 251 254 225 218 230 250 196 206 229 180 183 192 223 223 140 136 165 169 172 207 250 241 275 284 284 292 314 302 303 310 316
165 243 195 255 281 231 121 272 283 295 236 275 283 239 237 239 218 228 251 254 248 229 244 184 250 218 243 257 239 252 258 239 222 238 239 263 268 277 285 287 280 298 297 300 309
152 210 275 255 202 200 238 248 251 282 226 268 261 286 256 245 236 272 228 242 246 253 230 183 243 218 245 245 240 244 247 250 248 251 244 254 268 264 266 278 285 269 272 290 302
167 210 185 219 181 154 223 226 261 287 275 253 283 310 280 263 255 258 269 274 257 238 219 182 197 203 252 244 228 235 235 243 250 240 223 240 245 262 277 264 267 269 258 274 286